Tracking 30058 objects as of 9-Dec-2024
HD Live streaming from Space Station
objects crossing your sky now

YAOGAN-31 F

Track YAOGAN-31 F now!
10-day predictions


NORAD ID: 47536
Int'l Code: 2021-007E
Perigee: 1,002.1 km
Apogee: 1,190.9 km
Inclination: 63.4 °
Period: 107.0 minutes
Semi major axis: 7467 km
RCS: Unknown
Launch date: January 29, 2021
Source: People's Republic of China (PRC)
Launch site: Jiuquan Satellite Launch Center, China (JSC)
Your satellite tracking list
Your tracking list is empty




NASA's NSSDC Master Catalog

Two Line Element Set (TLE):
1 47536U 21007E   24344.56981044 -.00000002  00000-0  14168-3 0  9995
2 47536  63.4034 127.1523 0126434 358.4416   1.6199 13.45370863189597
Source of the keplerian elements: AFSPC